Athens, TX

5:17 AM CDT on August 29, 2016 (GMT -0500)
Athens

Weather History for KF44 - May, 2013

Change the Weather History Date:

Wednesday, May 15, 2013

  Actual Average (KTYR) Record (KTYR)
Temperature  
Mean Temperature 70 °F 73 °F  
Max Temperature 73 °F 83 °F 94 °F (1984)
Min Temperature 66 °F 63 °F 39 °F (1907)
Degree Days  
Heating Degree Days 0 0  
Month to date heating degree days 6  
Since 1 July heating degree days 2268  
Cooling Degree Days 4 8  
Month to date cooling degree days 97  
Year to date cooling degree days 209  
Growing Degree Days 20 (Base 50)    
Moisture  
Dew Point 64 °F    
Average Humidity 85    
Maximum Humidity 94    
Minimum Humidity 68    
Precipitation  
Precipitation 0.32 in 0.16 in 2.40 in (1945)
Month to date precipitation 2.33  
Year to date precipitation 16.49  
Snow  
Snow 0.00 in - - ()
Month to date snowfall  
Since 1 July snowfall  
Snow Depth -    
Sea Level Pressure  
Sea Level Pressure 29.99 in    
Wind  
Wind Speed 10 mph (SSE)    
Max Wind Speed 18 mph    
Max Gust Speed 24 mph    
Visibility 10 miles    
Events Rain , Thunderstorm    
T = Trace of Precipitation, MM = Missing Value Source: NWS Daily Summary

Daily Weather History Graph

Daily Weather History Graph

Search for Another Location

Airport or City:

Trip Planner

Search our weather history database for the weather conditions in past years. The results will help you decide how hot, cold, wet, or windy it might be!

Date:

Astronomy

May. 15, 2013 Rise Set
Actual Time 6:25 AM CDT 8:14 PM CDT
Civil Twilight 5:58 AM CDT 8:41 PM CDT
Nautical Twilight 5:26 AM CDT 9:13 PM CDT
Astronomical Twilight 4:51 AM CDT 9:48 PM CDT
Moon 10:58 AM CDT (5/15) 12:03 AM CDT (5/15)
Length of Visible Light 14h 42m
Length of Day
13h 48m
Waxing Crescent, 27% of the Moon is Illuminated
May 15
Waxing Crescent
May 17
First Quarter
May 24
Full
May 31
Last Quarter
Jun 8
New

Hourly Weather History & Observations

Time (CDT) Temp. Dew Point Humidity Pressure Visibility Wind Dir Wind Speed Gust Speed Precip Events Conditions
12:15 AM 69.8 °F 59.0 °F 68% 30.07 in 10.0 mi South 10.4 mph - N/A   Clear
12:35 AM 69.8 °F 60.8 °F 73% 30.07 in 10.0 mi South 12.7 mph - N/A   Clear
12:55 AM 69.8 °F 60.8 °F 73% 30.07 in 10.0 mi South 11.5 mph 18.4 mph N/A   Scattered Clouds
1:15 AM 69.8 °F 60.8 °F 73% 30.09 in 10.0 mi South 9.2 mph - N/A   Mostly Cloudy
1:35 AM 69.8 °F 60.8 °F 73% 30.09 in 10.0 mi South 10.4 mph 18.4 mph N/A   Mostly Cloudy
1:55 AM 69.8 °F 62.6 °F 78% 30.09 in 10.0 mi South 10.4 mph - N/A   Mostly Cloudy
2:15 AM 69.8 °F 62.6 °F 78% 30.09 in 10.0 mi South 8.1 mph - N/A   Overcast
2:35 AM 68.0 °F 62.6 °F 83% 30.09 in 10.0 mi South 10.4 mph - N/A   Mostly Cloudy
2:55 AM 68.0 °F 62.6 °F 83% 30.08 in 10.0 mi South 8.1 mph - N/A   Mostly Cloudy
3:15 AM 68.0 °F 62.6 °F 83% 30.08 in 10.0 mi South 9.2 mph 16.1 mph N/A   Overcast
3:35 AM 68.0 °F 62.6 °F 83% 30.07 in 10.0 mi South 9.2 mph - N/A   Overcast
3:55 AM 68.0 °F 62.6 °F 83% 30.06 in 10.0 mi South 6.9 mph - N/A   Overcast
4:15 AM 66.2 °F 62.6 °F 88% 30.05 in 10.0 mi South 9.2 mph - N/A   Scattered Clouds
4:35 AM 66.2 °F 62.6 °F 88% 30.04 in 10.0 mi SSE 8.1 mph - N/A   Clear
4:55 AM 66.2 °F 62.6 °F 88% 30.05 in 10.0 mi South 10.4 mph - N/A   Clear
5:15 AM 66.2 °F 62.6 °F 88% 30.06 in 10.0 mi South 6.9 mph - N/A   Scattered Clouds
5:35 AM 66.2 °F 62.6 °F 88% 30.04 in 10.0 mi South 8.1 mph - N/A   Mostly Cloudy
5:55 AM 66.2 °F 62.6 °F 88% 30.04 in 10.0 mi South 8.1 mph - N/A   Scattered Clouds
6:15 AM 66.2 °F 62.6 °F 88% 30.05 in 10.0 mi South 5.8 mph - N/A   Clear
6:35 AM 66.2 °F 62.6 °F 88% 30.05 in 10.0 mi South 10.4 mph - N/A   Scattered Clouds
6:55 AM 66.2 °F 62.6 °F 88% 30.04 in 10.0 mi SSE 12.7 mph 17.3 mph N/A   Scattered Clouds
7:15 AM 66.2 °F 62.6 °F 88% 30.05 in 10.0 mi South 10.4 mph - N/A   Clear
7:35 AM 68.0 °F 62.6 °F 83% 30.05 in 10.0 mi South 12.7 mph 19.6 mph N/A   Scattered Clouds
7:55 AM 68.0 °F 62.6 °F 83% 30.04 in 10.0 mi South 16.1 mph 24.2 mph N/A   Scattered Clouds
8:15 AM 68.0 °F 62.6 °F 83% 30.05 in 10.0 mi South 13.8 mph 18.4 mph N/A   Scattered Clouds
8:35 AM 66.2 °F 62.6 °F 88% 30.06 in 10.0 mi South 9.2 mph 20.7 mph N/A Rain Light Rain
8:55 AM 66.2 °F 64.4 °F 94% 30.06 in 7.0 mi SSE 11.5 mph - 0.01 in Rain Light Rain
9:15 AM 66.2 °F 64.4 °F 94% 30.05 in 10.0 mi South 9.2 mph - N/A Rain Light Rain
9:35 AM 68.0 °F 64.4 °F 88% 30.04 in 10.0 mi SSE 9.2 mph 16.1 mph N/A   Mostly Cloudy
9:55 AM 68.0 °F 64.4 °F 88% 30.04 in 10.0 mi South 8.1 mph - N/A Rain Light Rain
10:15 AM 68.0 °F 64.4 °F 88% 30.05 in 10.0 mi SSE 9.2 mph - N/A   Mostly Cloudy
10:35 AM 69.8 °F 64.4 °F 83% 30.05 in 10.0 mi South 10.4 mph 18.4 mph N/A   Mostly Cloudy
10:55 AM 71.6 °F 64.4 °F 78% 30.05 in 10.0 mi South 11.5 mph 19.6 mph N/A   Overcast
11:15 AM 71.6 °F 64.4 °F 78% 30.05 in 10.0 mi South 18.4 mph 23.0 mph N/A   Overcast
11:35 AM 73.4 °F 64.4 °F 73% 30.05 in 10.0 mi South 15.0 mph 18.4 mph N/A   Overcast
11:55 AM 71.6 °F 64.4 °F 78% 30.04 in 10.0 mi South 13.8 mph 21.9 mph N/A   Overcast
12:15 PM 71.6 °F 64.4 °F 78% 30.04 in 10.0 mi SSE 12.7 mph 18.4 mph N/A   Overcast
12:35 PM 71.6 °F 64.4 °F 78% 30.03 in 10.0 mi SSE 16.1 mph 23.0 mph N/A   Overcast
12:55 PM 71.6 °F 64.4 °F 78% 30.02 in 10.0 mi SSE 9.2 mph 17.3 mph N/A   Overcast
1:15 PM 69.8 °F 64.4 °F 83% 30.02 in 10.0 mi South 10.4 mph 17.3 mph N/A   Overcast
1:35 PM 69.8 °F 64.4 °F 83% 30.01 in 10.0 mi SSE 12.7 mph 17.3 mph N/A   Overcast
1:55 PM 68.0 °F 64.4 °F 88% 30.00 in 4.0 mi SSE 8.1 mph - 0.04 in Rain , Thunderstorm Heavy Thunderstorms and Rain
2:15 PM 68.0 °F 66.2 °F 94% 29.99 in 4.0 mi SSE 9.2 mph - 0.07 in Rain Light Rain
2:35 PM 68.0 °F 66.2 °F 94% 29.99 in 5.0 mi SSE 10.4 mph - 0.10 in Rain Rain
2:55 PM 68.0 °F 64.4 °F 88% 29.97 in 7.0 mi SSE 9.2 mph - 0.14 in Rain Light Rain
3:15 PM 68.0 °F 64.4 °F 88% 29.96 in 7.0 mi SSE 6.9 mph - N/A Rain Light Rain
3:35 PM 68.0 °F 64.4 °F 88% 29.95 in 10.0 mi SSE 9.2 mph - N/A Thunderstorm Overcast
3:55 PM 68.0 °F 64.4 °F 88% 29.94 in 2.5 mi SSE 10.4 mph - 0.13 in Rain , Thunderstorm Heavy Thunderstorms and Rain
4:15 PM 68.0 °F 64.4 °F 88% 29.94 in 10.0 mi SSE 9.2 mph - N/A Rain Rain
4:35 PM 68.0 °F 66.2 °F 94% 29.92 in 10.0 mi SE 11.5 mph 17.3 mph N/A   Overcast
4:55 PM 68.0 °F 66.2 °F 94% 29.91 in 10.0 mi SSE 11.5 mph 19.6 mph N/A   Overcast
5:15 PM 68.0 °F 66.2 °F 94% 29.91 in 10.0 mi SE 12.7 mph 16.1 mph N/A Thunderstorm Overcast
5:35 PM 68.0 °F 64.4 °F 88% 29.91 in 10.0 mi SE 9.2 mph - N/A   Overcast
5:55 PM 68.0 °F 64.4 °F 88% 29.91 in 10.0 mi SSE 5.8 mph - N/A   Overcast
6:15 PM 68.0 °F 64.4 °F 88% 29.91 in 10.0 mi South 3.5 mph - N/A   Overcast
6:35 PM 68.0 °F 64.4 °F 88% 29.89 in 10.0 mi SE 5.8 mph - N/A   Overcast
6:55 PM 68.0 °F 64.4 °F 88% 29.88 in 10.0 mi SE 5.8 mph - N/A   Overcast
7:15 PM 68.0 °F 64.4 °F 88% 29.87 in 10.0 mi SE 6.9 mph - N/A   Overcast
7:35 PM 68.0 °F 64.4 °F 88% 29.88 in 7.0 mi SE 4.6 mph - N/A   Overcast
7:55 PM 68.0 °F 64.4 °F 88% 29.88 in 10.0 mi SE 9.2 mph - N/A   Overcast
8:15 PM 68.0 °F 64.4 °F 88% 29.87 in 10.0 mi SE 9.2 mph - N/A   Overcast
8:35 PM 68.0 °F 64.4 °F 88% 29.86 in 10.0 mi SE 9.2 mph 16.1 mph N/A   Overcast
8:55 PM 68.0 °F 64.4 °F 88% 29.86 in 10.0 mi SE 9.2 mph 16.1 mph N/A   Overcast
9:15 PM 68.0 °F 64.4 °F 88% 29.85 in 10.0 mi SSE 12.7 mph 18.4 mph N/A   Overcast
9:35 PM 68.0 °F 62.6 °F 83% 29.84 in 10.0 mi SSE 12.7 mph 18.4 mph N/A   Mostly Cloudy
9:55 PM 68.0 °F 62.6 °F 83% 29.86 in 10.0 mi SSE 9.2 mph 17.3 mph N/A   Overcast
10:15 PM 68.0 °F 62.6 °F 83% 29.86 in 10.0 mi SSE 10.4 mph 16.1 mph N/A   Overcast
10:35 PM 68.0 °F 62.6 °F 83% 29.87 in 10.0 mi SSE 8.1 mph - N/A   Overcast
10:55 PM 68.0 °F 62.6 °F 83% 29.88 in 10.0 mi SSE 6.9 mph - N/A Thunderstorm Overcast
11:15 PM 68.0 °F 62.6 °F 83% 29.87 in 10.0 mi SE 6.9 mph - N/A   Overcast
11:55 PM 66.2 °F 62.6 °F 88% 29.89 in 10.0 mi SE 3.5 mph - N/A   Overcast